Location: Limoges
(45.8354°N, 1.2645°E)
Time: 20:53:51
(UTC+02:00)

Courier 1B Rocket - Pass Details

Date: 25 February 2024
Orbit: 920 x 1201 km, 28.2° (Epoch: 21 April)

Event Time Altitude Azimuth Distance (km) Brightness Sun altitude
Rises 07:30:15 0° 244° (WSW) 3,551 7.4 -2.8°
Reaches altitude 10° 07:35:14 10° 209° (SSW) 2,632 7.1 -2.0°
Maximum altitude 07:36:47 11° 195° (SSW) 2,577 7.2 -1.7°
Drops below altitude 10° 07:38:21 10° 180° (S) 2,658 7.5 -1.4°
Sets 07:43:30 0° 146° (SSE) 3,664 8.8 -0.5°
